| time (UTC) | temp C | wind direction | speed KPH | gust KPH | rain 1hr cm | rain 24hr cm | rain mn cm | humidity % | barometer mb |
| 20260831083016 | 27 | 158 | 1.6 | 9.7 | 0.00 | 0.00 | 0.00 | 66 | 1014.7 |
| 20260831082036 | 27 | 158 | 1.6 | 9.7 | 0.00 | 0.00 | 0.00 | 65 | 1014.8 |
| 20260831081116 | 28 | 158 | 3.2 | 14.5 | 0.00 | 0.00 | 0.00 | 64 | 1014.8 |
| 20260831080016 | 28 | 180 | 3.2 | 14.5 | 0.00 | 0.00 | 0.00 | 63 | 1014.9 |
| 20260831075016 | 28 | 158 | 6.4 | 16.1 | 0.00 | 0.00 | 0.00 | 63 | 1014.8 |
| 20260831074016 | 28 | 158 | 3.2 | 20.9 | 0.00 | 0.00 | 0.00 | 62 | 1014.8 |
| 20260831073056 | 28 | 158 | 6.4 | 17.7 | 0.00 | 0.00 | 0.00 | 61 | 1014.8 |
| 20260831072016 | 28 | 158 | 4.8 | 16.1 | 0.00 | 0.00 | 0.00 | 60 | 1014.8 |
| 20260831071056 | 29 | 158 | 6.4 | 20.9 | 0.00 | 0.00 | 0.00 | 58 | 1014.8 |
| 20260831070056 | 29 | 158 | 11.3 | 22.5 | 0.00 | 0.00 | 0.00 | 57 | 1014.8 |
| 20260831065016 | 29 | 158 | 4.8 | 19.3 | 0.00 | 0.00 | 0.00 | 55 | 1014.9 |
| 20260831064036 | 30 | 158 | 8.0 | 19.3 | 0.00 | 0.00 | 0.00 | 54 | 1015.0 |
| 20260831063036 | 30 | 158 | 9.7 | 20.9 | 0.00 | 0.00 | 0.00 | 54 | 1015.0 |
| 20260831062016 | 30 | 158 | 11.3 | 25.7 | 0.00 | 0.00 | 0.00 | 53 | 1015.0 |
| 20260831061015 | 30 | 158 | 12.9 | 19.3 | 0.00 | 0.00 | 0.00 | 52 | 1014.9 |
| 20260831060016 | 30 | 158 | 6.4 | 14.5 | 0.00 | 0.00 | 0.00 | 51 | 1014.9 |
| 20260831055016 | 30 | 158 | 6.4 | 14.5 | 0.00 | 0.00 | 0.00 | 50 | 1015.0 |
| 20260831054016 | 30 | 158 | 11.3 | 19.3 | 0.00 | 0.00 | 0.00 | 50 | 1015.0 |
| 20260831053016 | 30 | 158 | 9.7 | 17.7 | 0.00 | 0.00 | 0.00 | 49 | 1014.9 |
| 20260831052016 | 30 | 158 | 9.7 | 22.5 | 0.00 | 0.00 | 0.00 | 48 | 1014.7 |
| 20260831051016 | 31 | 158 | 9.7 | 16.1 | 0.00 | 0.00 | 0.00 | 47 | 1014.7 |
| 20260831050016 | 31 | 158 | 8.0 | 16.1 | 0.00 | 0.00 | 0.00 | 47 | 1014.8 |
| 20260831045016 | 31 | 158 | 8.0 | 14.5 | 0.00 | 0.00 | 0.00 | 47 | 1014.7 |
| 20260831044016 | 31 | 135 | 9.7 | 14.5 | 0.00 | 0.00 | 0.00 | 47 | 1014.6 |
| 20260831043016 | 30 | 158 | 9.7 | 17.7 | 0.00 | 0.00 | 0.00 | 47 | 1014.6 |
| 20260831042016 | 30 | 158 | 8.0 | 17.7 | 0.00 | 0.00 | 0.00 | 48 | 1014.5 |
| 20260831040016 | 30 | 135 | 4.8 | 11.3 | 0.00 | 0.00 | 0.00 | 48 | 1014.5 |
| 20260831035016 | 30 | 135 | 3.2 | 8.0 | 0.00 | 0.00 | 0.00 | 48 | 1014.4 |
| 20260831034016 | 30 | 135 | 3.2 | 4.8 | 0.00 | 0.00 | 0.00 | 47 | 1014.2 |
| 20260831033016 | 30 | 135 | 1.6 | 4.8 | 0.00 | 0.00 | 0.00 | 45 | 1014.1 |
| 20260831032016 | 31 | 135 | 4.8 | 6.4 | 0.00 | 0.00 | 0.00 | 45 | 1014.1 |
| 20260831031015 | 31 | 158 | 1.6 | 4.8 | 0.00 | 0.00 | 0.00 | 44 | 1014.0 |
| 20260831030016 | 31 | 158 | 3.2 | 9.7 | 0.00 | 0.00 | 0.00 | 43 | 1013.9 |
| 20260831025016 | 31 | 135 | 4.8 | 8.0 | 0.00 | 0.00 | 0.00 | 43 | 1013.7 |
| 20260831024016 | 31 | 158 | 6.4 | 9.7 | 0.00 | 0.00 | 0.00 | 42 | 1013.6 |
| 20260831023016 | 31 | 135 | 4.8 | 9.7 | 0.00 | 0.00 | 0.00 | 42 | 1013.4 |
| 20260831022016 | 31 | 158 | 3.2 | 8.0 | 0.00 | 0.00 | 0.00 | 41 | 1013.3 |
| 20260831021016 | 32 | 158 | 1.6 | 4.8 | 0.00 | 0.00 | 0.00 | 40 | 1013.2 |
| 20260831020015 | 32 | 0.0 | 3.2 | 0.00 | 0.00 | 0.00 | 39 | 1013.0 | |
| 20260831015016 | 32 | 0.0 | 1.6 | 0.00 | 0.00 | 0.00 | 38 | 1013.0 | |
| 20260831014055 | 33 | 158 | 3.2 | 8.0 | 0.00 | 0.00 | 0.00 | 38 | 1012.6 |
| 20260831013016 | 33 | 158 | 3.2 | 8.0 | 0.00 | 0.00 | 0.00 | 37 | 1012.6 |
| 20260831012016 | 33 | 158 | 4.8 | 9.7 | 0.00 | 0.00 | 0.00 | 35 | 1012.6 |
| 20260831011016 | 33 | 158 | 4.8 | 12.9 | 0.00 | 0.00 | 0.00 | 35 | 1012.5 |
| 20260831010056 | 34 | 158 | 3.2 | 8.0 | 0.00 | 0.00 | 0.00 | 34 | 1012.5 |
| 20260831005015 | 35 | 158 | 4.8 | 9.7 | 0.00 | 0.00 | 0.00 | 34 | 1012.4 |
| 20260831004016 | 35 | 158 | 6.4 | 12.9 | 0.00 | 0.00 | 0.00 | 34 | 1012.5 |
| 20260831003016 | 35 | 135 | 4.8 | 8.0 | 0.00 | 0.00 | 0.00 | 33 | 1012.4 |
| 20260831002016 | 35 | 135 | 8.0 | 14.5 | 0.00 | 0.00 | 0.00 | 32 | 1012.5 |
| 20260831001036 | 35 | 135 | 9.7 | 16.1 | 0.00 | 0.00 | 0.00 | 32 | 1012.4 |
| 20260831000015 | 36 | 113 | 12.9 | 19.3 | 0.00 | 0.00 | 0.00 | 31 | 1012.6 |
| 20260830235015 | 36 | 135 | 11.3 | 17.7 | 0.00 | 0.00 | 0.00 | 31 | 1012.5 |
| 20260830234016 | 36 | 135 | 12.9 | 20.9 | 0.00 | 0.00 | 0.00 | 31 | 1012.6 |
| 20260830233016 | 36 | 135 | 14.5 | 25.7 | 0.00 | 0.00 | 0.00 | 32 | 1012.7 |
| 20260830232016 | 36 | 135 | 16.1 | 24.1 | 0.00 | 0.00 | 0.00 | 32 | 1012.7 |
| 20260830231016 | 36 | 135 | 12.9 | 24.1 | 0.00 | 0.00 | 0.00 | 32 | 1012.6 |
| 20260830230016 | 36 | 135 | 14.5 | 25.7 | 0.00 | 0.00 | 0.00 | 31 | 1012.7 |
| 20260830225036 | 36 | 113 | 14.5 | 24.1 | 0.00 | 0.00 | 0.00 | 31 | 1012.7 |
| 20260830224015 | 36 | 135 | 14.5 | 22.5 | 0.00 | 0.00 | 0.00 | 31 | 1012.8 |
| 20260830223016 | 37 | 135 | 14.5 | 25.7 | 0.00 | 0.00 | 0.00 | 30 | 1012.8 |
| 20260830222016 | 37 | 135 | 19.3 | 29.0 | 0.00 | 0.00 | 0.00 | 30 | 1012.9 |
| 20260830221035 | 37 | 135 | 11.3 | 17.7 | 0.00 | 0.00 | 0.00 | 28 | 1012.8 |
| 20260830220015 | 37 | 135 | 8.0 | 22.5 | 0.00 | 0.00 | 0.00 | 29 | 1012.9 |
| 20260830215035 | 37 | 113 | 16.1 | 25.7 | 0.00 | 0.00 | 0.00 | 28 | 1012.9 |
| 20260830214016 | 37 | 113 | 12.9 | 22.5 | 0.00 | 0.00 | 0.00 | 28 | 1013.0 |
| 20260830213015 | 37 | 113 | 12.9 | 22.5 | 0.00 | 0.00 | 0.00 | 26 | 1013.1 |
| 20260830212016 | 37 | 135 | 14.5 | 25.7 | 0.00 | 0.00 | 0.00 | 29 | 1013.0 |
| 20260830211015 | 37 | 135 | 9.7 | 14.5 | 0.00 | 0.00 | 0.00 | 30 | 1013.2 |
| 20260830210016 | 37 | 113 | 14.5 | 20.9 | 0.00 | 0.00 | 0.00 | 29 | 1013.4 |
| 20260830205015 | 38 | 113 | 14.5 | 20.9 | 0.00 | 0.00 | 0.00 | 30 | 1013.5 |
| 20260830204015 | 38 | 135 | 12.9 | 22.5 | 0.00 | 0.00 | 0.00 | 29 | 1013.7 |
| 20260830203016 | 38 | 158 | 9.7 | 22.5 | 0.00 | 0.00 | 0.00 | 29 | 1013.9 |
| 20260830202015 | 38 | 113 | 16.1 | 29.0 | 0.00 | 0.00 | 0.00 | 30 | 1014.0 |
| 20260830201016 | 38 | 135 | 14.5 | 27.4 | 0.00 | 0.00 | 0.00 | 30 | 1014.1 |
| 20260830200035 | 38 | 135 | 11.3 | 19.3 | 0.00 | 0.00 | 0.00 | 31 | 1014.2 |
| 20260830195015 | 38 | 135 | 11.3 | 20.9 | 0.00 | 0.00 | 0.00 | 31 | 1014.3 |
| 20260830194016 | 38 | 158 | 3.2 | 19.3 | 0.00 | 0.00 | 0.00 | 30 | 1014.4 |
| 20260830193015 | 38 | 158 | 6.4 | 22.5 | 0.00 | 0.00 | 0.00 | 31 | 1014.5 |
| 20260830192015 | 38 | 135 | 14.5 | 25.7 | 0.00 | 0.00 | 0.00 | 31 | 1014.7 |
| 20260830191036 | 37 | 113 | 8.0 | 19.3 | 0.00 | 0.00 | 0.00 | 31 | 1014.9 |
| 20260830190016 | 37 | 135 | 11.3 | 27.4 | 0.00 | 0.00 | 0.00 | 31 | 1014.9 |
| 20260830185016 | 37 | 135 | 17.7 | 32.2 | 0.00 | 0.00 | 0.00 | 32 | 1015.1 |
| 20260830184015 | 37 | 180 | 9.7 | 24.1 | 0.00 | 0.00 | 0.00 | 32 | 1015.2 |
| 20260830183015 | 37 | 135 | 11.3 | 19.3 | 0.00 | 0.00 | 0.00 | 33 | 1015.5 |
| 20260830182015 | 37 | 135 | 16.1 | 25.7 | 0.00 | 0.00 | 0.00 | 33 | 1015.5 |
| 20260830181036 | 37 | 158 | 11.3 | 20.9 | 0.00 | 0.00 | 0.00 | 34 | 1015.7 |
| 20260830180016 | 37 | 158 | 11.3 | 20.9 | 0.00 | 0.00 | 0.00 | 34 | 1015.8 |
| 20260830175016 | 37 | 135 | 12.9 | 22.5 | 0.00 | 0.00 | 0.00 | 35 | 1016.1 |
| 20260830174015 | 37 | 135 | 9.7 | 20.9 | 0.00 | 0.00 | 0.00 | 35 | 1016.1 |
| 20260830173015 | 36 | 158 | 11.3 | 24.1 | 0.00 | 0.00 | 0.00 | 35 | 1016.3 |
| 20260830172035 | 36 | 158 | 11.3 | 25.7 | 0.00 | 0.00 | 0.00 | 36 | 1016.5 |
| 20260830171015 | 36 | 135 | 17.7 | 29.0 | 0.00 | 0.00 | 0.00 | 35 | 1016.6 |
| 20260830170055 | 36 | 135 | 17.7 | 29.0 | 0.00 | 0.00 | 0.00 | 35 | 1016.6 |
| 20260830165016 | 35 | 158 | 8.0 | 20.9 | 0.00 | 0.00 | 0.00 | 38 | 1016.8 |
| 20260830164015 | 35 | 135 | 11.3 | 24.1 | 0.00 | 0.00 | 0.00 | 42 | 1016.9 |
| 20260830163015 | 35 | 158 | 8.0 | 22.5 | 0.00 | 0.00 | 0.00 | 43 | 1016.9 |
| 20260830162015 | 35 | 158 | 11.3 | 20.9 | 0.00 | 0.00 | 0.00 | 44 | 1017.1 |
| 20260830161015 | 35 | 158 | 8.0 | 19.3 | 0.00 | 0.00 | 0.00 | 45 | 1017.1 |
| 20260830160016 | 34 | 180 | 8.0 | 19.3 | 0.00 | 0.00 | 0.00 | 46 | 1017.0 |
| 20260830155015 | 33 | 158 | 12.9 | 22.5 | 0.00 | 0.00 | 0.00 | 47 | 1017.0 |
| 20260830154015 | 33 | 0.0 | 11.3 | 0.00 | 0.00 | 0.00 | 49 | 1017.1 | |
| 20260830153015 | 33 | 158 | 4.8 | 17.7 | 0.00 | 0.00 | 0.00 | 50 | 1017.0 |
| 20260830152015 | 32 | 158 | 9.7 | 17.7 | 0.00 | 0.00 | 0.00 | 52 | 1016.9 |
| 20260830151015 | 32 | 0.0 | 4.8 | 0.00 | 0.00 | 0.00 | 55 | 1017.1 | |
| 20260830150015 | 31 | 180 | 1.6 | 11.3 | 0.00 | 0.00 | 0.00 | 56 | 1016.9 |
| 20260830145015 | 31 | 158 | 4.8 | 17.7 | 0.00 | 0.00 | 0.00 | 57 | 1016.9 |
| 20260830144015 | 31 | 0.0 | 6.4 | 0.00 | 0.00 | 0.00 | 58 | 1017.0 | |
| 20260830143015 | 31 | 0.0 | 4.8 | 0.00 | 0.00 | 0.00 | 60 | 1017.0 | |
| 20260830142015 | 30 | 158 | 1.6 | 9.7 | 0.00 | 0.00 | 0.00 | 61 | 1016.8 |
| 20260830141015 | 29 | 0.0 | 6.4 | 0.00 | 0.00 | 0.00 | 63 | 1016.7 | |
| 20260830140035 | 29 | 0.0 | 6.4 | 0.00 | 0.00 | 0.00 | 65 | 1016.8 | |
| 20260830135015 | 28 | 0.0 | 3.2 | 0.00 | 0.00 | 0.00 | 67 | 1016.8 | |
| 20260830134035 | 28 | 0.0 | 3.2 | 0.00 | 0.00 | 0.00 | 69 | 1016.7 | |
| 20260830133036 | 27 | 0.0 | 3.2 | 0.00 | 0.00 | 0.00 | 72 | 1016.7 | |
| 20260830132015 | 27 | 0.0 | 6.4 | 0.00 | 0.00 | 0.00 | 73 | 1016.5 | |
| 20260830131015 | 27 | 0.0 | 3.2 | 0.00 | 0.00 | 0.00 | 75 | 1016.5 | |
| 20260830130015 | 26 | 0.0 | 0.0 | 0.00 | 0.00 | 0.00 | 76 | 1016.4 | |
| 20260830125016 | 26 | 0.0 | 8.0 | 0.00 | 0.00 | 0.00 | 77 | 1016.3 | |
| 20260830124015 | 26 | 0.0 | 3.2 | 0.00 | 0.00 | 0.00 | 77 | 1016.2 | |
| 20260830123015 | 26 | 0.0 | 1.6 | 0.00 | 0.00 | 0.00 | 77 | 1016.1 | |
| 20260830122015 | 26 | 0.0 | 3.2 | 0.00 | 0.00 | 0.00 | 77 | 1015.9 | |
| 20260830121017 | 26 | 0.0 | 1.6 | 0.00 | 0.00 | 0.00 | 76 | 1015.7 | |
| 20260830120017 | 26 | 0.0 | 3.2 | 0.00 | 0.00 | 0.00 | 76 | 1015.6 | |
| 20260830115037 | 26 | 180 | 1.6 | 11.3 | 0.00 | 0.00 | 0.00 | 75 | 1015.5 |
| 20260830114017 | 26 | 0.0 | 6.4 | 0.00 | 0.00 | 0.00 | 75 | 1015.5 | |
| 20260830113037 | 26 | 158 | 3.2 | 11.3 | 0.00 | 0.00 | 0.00 | 74 | 1015.4 |
| 20260830112017 | 26 | 180 | 3.2 | 14.5 | 0.00 | 0.00 | 0.00 | 74 | 1015.3 |
| 20260830111037 | 26 | 158 | 3.2 | 14.5 | 0.00 | 0.00 | 0.00 | 73 | 1015.2 |
| 20260830110015 | 26 | 158 | 3.2 | 9.7 | 0.00 | 0.00 | 0.00 | 73 | 1015.1 |
| 20260830105017 | 26 | 158 | 4.8 | 12.9 | 0.00 | 0.00 | 0.00 | 72 | 1015.0 |
| 20260830104015 | 26 | 158 | 4.8 | 14.5 | 0.00 | 0.00 | 0.00 | 72 | 1015.0 |
| 20260830103057 | 27 | 158 | 3.2 | 14.5 | 0.00 | 0.00 | 0.00 | 71 | 1015.0 |
| 20260830102036 | 27 | 158 | 6.4 | 16.1 | 0.00 | 0.00 | 0.00 | 71 | 1014.9 |
| 20260830101017 | 27 | 158 | 3.2 | 12.9 | 0.00 | 0.00 | 0.00 | 70 | 1015.1 |
| 20260830100057 | 27 | 180 | 3.2 | 12.9 | 0.00 | 0.00 | 0.00 | 69 | 1015.0 |
| 20260830095017 | 27 | 158 | 4.8 | 16.1 | 0.00 | 0.00 | 0.00 | 69 | 1015.1 |
| 20260830094017 | 27 | 158 | 3.2 | 12.9 | 0.00 | 0.00 | 0.00 | 68 | 1015.0 |
| 20260830093037 | 27 | 158 | 3.2 | 12.9 | 0.00 | 0.00 | 0.00 | 68 | 1015.0 |
| 20260830092017 | 27 | 180 | 1.6 | 9.7 | 0.00 | 0.00 | 0.00 | 67 | 1015.1 |
| 20260830091037 | 27 | 158 | 3.2 | 11.3 | 0.00 | 0.00 | 0.00 | 66 | 1015.0 |
| 20260830090037 | 27 | 0.0 | 6.4 | 0.00 | 0.00 | 0.00 | 65 | 1015.0 | |
| 20260830085016 | 27 | 158 | 1.6 | 9.7 | 0.00 | 0.00 | 0.00 | 65 | 1015.0 |
| 20260830084016 | 28 | 180 | 1.6 | 14.5 | 0.00 | 0.00 | 0.00 | 64 | 1014.9 |